[[{"header":{"parameterUnit":"m.s-1","parameterCategory":1,"la1":30.2991,"la2":30.254,"lo1":-89.0895,"lo2":-89.0444,"dy":0.0017,"dx":0.0017,"nx":28,"ny":28,"refTime":"2024-09-29T09:00:00:Z","depth":0,"parameterNumber":2,"parameterNumberName":"U-component_of_WINDS"},"data":[0,0,0,0,0,0,0,0,0,0,0,0,0,0,0,0,0,0,0,0,0,0,0,0,0,0,0,0,0,0,0,0,0,0,0,0,0,0,0,0,0,0,0,0,0,0,0,0,0,0,0,0,0,0,0,0,0,0,1.2178,1.2179,0,1.2255,1.2256,1.2257,1.2274,1.2273,1.2272,1.2272,1.2354,1.2357,1.2359,0,0,0,0,0,0,0,0,0,0,0,0,0,1.2047,1.205,1.2178,1.2179,1.218,1.2255,1.2256,1.2257,1.2274,1.2273,1.2272,1.2272,1.2353,1.2356,1.236,0,0,0,0,0,0,0,0,0,0,0,0,0,1.2112,1.205,1.2177,1.2197,1.2199,1.2255,1.2256,1.2258,1.2274,1.2273,1.2272,1.2271,1.2352,1.2356,1.236,1.2403,0,0,1.2373,1.2374,0,0,0,0,0,0,0,0,1.2109,1.2117,1.2193,1.2196,1.2198,1.2254,1.224,1.2306,1.2274,1.2246,1.2272,1.2271,1.2322,1.2328,1.2345,1.2407,1.241,1.2373,1.2375,1.2377,1.2378,0,0,0,0,0,0,0,1.2104,1.2114,1.2208,1.2194,1.2197,1.2203,1.2211,1.2253,1.2288,1.2248,1.2249,1.2258,1.2323,1.2341,1.2347,1.2411,1.2373,1.2376,1.2379,1.2381,1.2514,1.2515,0,0,0,0,0,0,1.2096,1.211,1.2206,1.2211,1.215,1.2206,1.2215,1.2237,1.2287,1.2294,1.2259,1.2259,1.2334,1.2342,1.235,1.2403,1.2377,1.2381,1.2383,1.2513,1.2514,1.2515,0,0,0,0,0,0,1.2093,1.2104,1.2203,1.2161,1.2174,1.2209,1.2233,1.2239,1.2257,1.2295,1.2302,1.227,1.2334,1.2344,1.2389,1.2406,1.2383,1.2387,1.2511,1.2513,1.2514,1.251,0,0,0,0,0,0,1.2089,1.2103,1.2118,1.2161,1.2176,1.224,1.2234,1.2241,1.2263,1.2264,1.2308,1.2314,1.2334,1.2383,1.2394,1.2411,1.239,1.251,1.2512,1.2514,1.2509,1.2511,1.2513,0,0,0,0,0,1.2084,1.2115,1.2119,1.2131,1.2196,1.2241,1.225,1.227,1.2265,1.2281,1.2306,1.2313,1.2403,1.2388,1.2399,1.2419,1.2509,1.2511,1.2514,1.2508,1.2511,1.2513,0,0,0,0,0,0,1.2074,1.212,1.2126,1.2171,1.2202,1.2244,1.2265,1.2273,1.2307,1.2306,1.2332,1.2342,1.2386,1.2407,1.2389,1.2463,1.2456,1.2461,1.2447,1.245,1.2453,1.2446,1.2393,0,0,0,0,0,1.2076,1.2108,1.2148,1.2183,1.2199,1.2229,1.2249,1.2263,1.2297,1.231,1.2338,1.2372,1.2408,1.243,1.2466,1.2513,1.2523,1.2532,1.2534,1.2536,1.2539,1.2567,1.2571,1.2523,1.2523,1.2523,0,0,1.2082,1.2112,1.213,1.2182,1.2207,1.2241,1.224,1.2275,1.23,1.2316,1.236,1.2382,1.2421,1.2468,1.249,1.2487,1.2555,1.2539,1.254,1.2543,1.257,1.2574,1.2578,1.2525,1.2524,1.2524,0,0,1.211,1.2135,1.2168,1.2194,1.2232,1.2253,1.2261,1.2302,1.2317,1.2362,1.2375,1.2406,1.2467,1.2494,1.2516,1.2557,1.2564,1.2568,1.2579,1.2605,1.2609,1.2612,1.2627,1.2631,1.2571,1.2571,1.2571,0,1.2112,1.2162,1.2184,1.2218,1.2241,1.2257,1.229,1.2315,1.2363,1.2379,1.2376,1.2453,1.2481,1.2534,1.2544,1.2561,1.2572,1.2562,1.2606,1.261,1.2614,1.2628,1.2633,1.2571,1.2571,1.2571,1.2571,0,1.2163,1.2197,1.2219,1.2265,1.2291,1.2325,1.2353,1.2377,1.2389,1.241,1.2457,1.249,1.2533,1.2547,1.2559,1.2603,1.26,1.2601,1.2594,1.2618,1.2631,1.2637,1.2572,1.2571,1.2571,1.2571,0,0,1.2184,1.2242,1.225,1.2271,1.2316,1.2344,1.238,1.242,1.244,1.2474,1.2505,1.2557,1.2559,1.2584,1.26,1.2623,1.2653,1.2622,1.2623,1.2626,1.2703,1.2701,1.2706,1.2659,1.266,1.2661,1.27,0,1.2216,1.2279,1.23,1.2353,1.2385,1.2402,1.2433,1.2465,1.2486,1.2518,1.2542,1.2579,1.2579,1.2594,1.2618,1.2644,1.2669,1.2642,1.2689,1.269,1.2677,1.2714,1.2711,1.2746,1.2705,1.2706,1.2707,0,1.2262,1.2295,1.235,1.2392,1.2406,1.2434,1.2474,1.2504,1.2541,1.2555,1.2584,1.2598,1.2638,1.263,1.2685,1.2666,1.2687,1.2703,1.2705,1.2709,1.2699,1.2718,1.2757,1.2762,1.2715,1.2715,1.2714,0,1.227,1.233,1.2371,1.2389,1.2438,1.2457,1.2479,1.2515,1.2539,1.2575,1.259,1.2631,1.2652,1.2684,1.271,1.2701,1.2763,1.2757,1.2776,1.2775,1.2787,1.2786,1.2829,1.2802,1.2802,1.2802,1.2802,0,1.2303,1.2336,1.2375,1.24,1.2438,1.2464,1.2501,1.2525,1.2557,1.2588,1.2606,1.2634,1.2667,1.2701,1.2722,1.2764,1.2774,1.2788,1.2792,1.2785,1.2783,1.2798,1.2796,1.2804,1.2803,1.2803,1.2803,0,1.2319,1.2346,1.2391,1.2435,1.2447,1.2473,1.2511,1.2537,1.256,1.2599,1.261,1.2646,1.2687,1.2716,1.2769,1.2783,1.2828,1.2834,1.2815,1.2817,1.2835,1.2833,1.2889,1.2897,1.2865,1.2866,1.2866,0,1.2337,1.2363,1.2409,1.2431,1.2452,1.2487,1.2511,1.2539,1.2563,1.2608,1.2629,1.2671,1.2705,1.2769,1.2801,1.2842,1.2848,1.2865,1.2854,1.2846,1.2848,1.2845,1.2848,1.2866,1.2866,1.2866,1.2867,0,1.2367,1.238,1.2413,1.2452,1.248,1.2512,1.2545,1.2562,1.2596,1.2623,1.2664,1.2691,1.2745,1.2786,1.283,1.2854,1.2866,1.287,1.2877,1.2869,1.2857,1.2863,1.2818,1.2868,1.2868,1.2868,1.2868,1.2868,1.2384,1.2408,1.2444,1.2482,1.2509,1.2539,1.2566,1.2592,1.2627,1.2672,1.2687,1.2729,1.2768,1.2828,1.2853,1.2888,1.2887,1.2897,1.2899,1.2901,1.29,1.2852,1.2896,1.2896,1.2896,1.2896,1.2896,0,1.2414,1.2439,1.2473,1.2518,1.2547,1.2556,1.2593,1.2618,1.2654,1.2689,1.2723,1.2771,1.2812,1.2847,1.289,1.2911,1.2918,1.2921,1.2919,1.2925,1.2899,1.2888,1.2915,1.2915,1.2915,1.2915,1.2915,1.2915,1.2433,1.2474,1.2491,1.2546,1.2571,1.2612,1.2633,1.2661,1.2689,1.2741,1.2775,1.2798,1.2833,1.2879,1.2917,1.2927,1.2942,1.2944,1.2955,1.2929,1.2927,1.2924,1.2915,1.2947,1.2947,1.2978,1.2978,1.2978]},{"header":{"parameterUnit":"m.s-1","parameterCategory":1,"la1":30.2991,"la2":30.254,"lo1":-89.0895,"lo2":-89.0444,"dy":0.0017,"dx":0.0017,"nx":28,"ny":28,"refTime":"2024-09-29T09:00:00:Z","depth":0,"parameterNumber":3,"parameterNumberName":"V-component_of_WINDS"},"data":[0,0,0,0,0,0,0,0,0,0,0,0,0,0,0,0,0,0,0,0,0,0,0,0,0,0,0,0,0,0,0,0,0,0,0,0,0,0,0,0,0,0,0,0,0,0,0,0,0,0,0,0,0,0,0,0,0,0,2.942,2.9421,0,2.9516,2.9517,2.9518,2.9542,2.9541,2.954,2.954,2.963,2.9633,2.9636,0,0,0,0,0,0,0,0,0,0,0,0,0,2.9248,2.9251,2.9419,2.9421,2.9422,2.9515,2.9517,2.9518,2.9542,2.9541,2.954,2.9539,2.9629,2.9633,2.9636,0,0,0,0,0,0,0,0,0,0,0,0,0,2.9331,2.9252,2.9419,2.9445,2.9448,2.9515,2.9517,2.9518,2.9542,2.9541,2.954,2.9539,2.9628,2.9632,2.9637,2.9682,0,0,2.965,2.9652,0,0,0,0,0,0,0,0,2.9326,2.9337,2.944,2.9444,2.9447,2.9516,2.949,2.9573,2.9542,2.9506,2.954,2.9539,2.9592,2.96,2.9619,2.9686,2.969,2.9651,2.9653,2.9655,2.9656,0,0,0,0,0,0,0,2.9321,2.9333,2.9457,2.9442,2.9446,2.9449,2.946,2.9505,2.9553,2.9509,2.9511,2.9523,2.9594,2.9615,2.9622,2.9691,2.965,2.9654,2.9657,2.9659,2.9799,2.98,0,0,0,0,0,0,2.9312,2.9328,2.9454,2.946,2.9384,2.9453,2.9465,2.9495,2.9552,2.956,2.9523,2.9523,2.9608,2.9616,2.9625,2.9681,2.9655,2.9659,2.9662,2.9798,2.9799,2.98,0,0,0,0,0,0,2.9308,2.9323,2.945,2.9395,2.9412,2.9457,2.949,2.9497,2.9518,2.9563,2.9571,2.9537,2.9607,2.9619,2.9668,2.9684,2.9661,2.9665,2.9796,2.9798,2.98,2.9794,0,0,0,0,0,0,2.9303,2.9321,2.9341,2.9395,2.9414,2.9494,2.9491,2.9499,2.9527,2.9528,2.9578,2.9585,2.9608,2.9661,2.9672,2.969,2.9669,2.9795,2.9797,2.9799,2.9793,2.9795,2.9797,0,0,0,0,0,2.9297,2.9334,2.9342,2.9357,2.944,2.9495,2.9506,2.9533,2.9528,2.9547,2.9575,2.9583,2.9681,2.9666,2.9679,2.9698,2.9794,2.9797,2.9799,2.9792,2.9795,2.9797,0,0,0,0,0,0,2.9277,2.9341,2.9351,2.9407,2.9446,2.9499,2.9524,2.9535,2.9574,2.9573,2.9603,2.9614,2.9661,2.9685,2.9667,2.9744,2.9737,2.9742,2.9727,2.973,2.9733,2.9725,2.9673,0,0,0,0,0,2.928,2.9322,2.9374,2.9419,2.9438,2.9478,2.9502,2.9521,2.9561,2.9576,2.9609,2.9645,2.9684,2.9708,2.9747,2.9796,2.9807,2.9816,2.9818,2.982,2.9823,2.985,2.9854,2.9808,2.9808,2.9808,0,0,2.9285,2.9325,2.9349,2.9416,2.9448,2.9488,2.9491,2.9533,2.9562,2.9582,2.9631,2.9656,2.9698,2.9748,2.9771,2.9768,2.9838,2.9823,2.9823,2.9826,2.9853,2.9857,2.9861,2.9809,2.9809,2.9809,0,0,2.9314,2.935,2.9391,2.9423,2.9473,2.9499,2.9508,2.956,2.9578,2.9629,2.9644,2.9678,2.9744,2.9774,2.9797,2.9838,2.9846,2.985,2.986,2.9886,2.9889,2.9893,2.9906,2.9911,2.9853,2.9853,2.9853,0,2.9313,2.9377,2.9409,2.9451,2.9479,2.9502,2.9541,2.9571,2.9629,2.9646,2.9644,2.9728,2.9758,2.9814,2.9824,2.9843,2.9853,2.9843,2.9887,2.989,2.9894,2.9907,2.9912,2.9853,2.9853,2.9853,2.9853,0,2.9373,2.9416,2.9443,2.9502,2.9533,2.9573,2.9609,2.9636,2.9651,2.9677,2.9727,2.9764,2.981,2.9825,2.9839,2.9883,2.9879,2.9881,2.9875,2.9898,2.991,2.9916,2.9853,2.9853,2.9853,2.9853,0,0,2.9391,2.9469,2.9478,2.9504,2.9561,2.9594,2.9634,2.9682,2.9704,2.9743,2.9776,2.9832,2.9835,2.9861,2.9879,2.9902,2.993,2.9901,2.9902,2.9904,2.9979,2.9976,2.9982,2.9937,2.9938,2.9939,2.9975,0,2.9427,2.9504,2.9534,2.9595,2.9635,2.9656,2.9691,2.9728,2.9753,2.9788,2.9815,2.9854,2.9855,2.9871,2.9894,2.9922,2.9945,2.992,2.9965,2.9967,2.9953,2.9989,2.9986,3.0019,2.998,2.9981,2.9982,0,2.9478,2.9521,2.9587,2.9639,2.9656,2.9688,2.9734,2.9768,2.9809,2.9825,2.9856,2.9873,2.9913,2.9905,2.996,2.9942,2.9963,2.9979,2.9981,2.9985,2.9975,2.9992,3.003,3.0034,2.999,2.9989,2.9989,0,2.9484,2.9558,2.9607,2.9629,2.969,2.9712,2.9738,2.9779,2.9805,2.9844,2.9861,2.9904,2.9926,2.9957,2.9984,2.9976,3.0036,3.003,3.0049,3.0048,3.006,3.0058,3.0099,3.0075,3.0074,3.0074,3.0074,0,2.952,2.9559,2.961,2.964,2.9684,2.9717,2.9758,2.9785,2.9822,2.9855,2.9876,2.9906,2.994,2.9974,2.9995,3.0037,3.0047,3.006,3.0064,3.0057,3.0055,3.007,3.0068,3.0076,3.0075,3.0075,3.0075,0,2.9533,2.9569,2.9624,2.9678,2.9693,2.9722,2.9768,2.9796,2.9823,2.9865,2.9876,2.9916,2.9958,2.9988,3.004,3.0054,3.0099,3.0104,3.0085,3.0088,3.0104,3.0102,3.0155,3.0163,3.0134,3.0134,3.0134,0,2.9552,2.9584,2.9642,2.9668,2.9695,2.9735,2.9763,2.9796,2.9824,2.9874,2.9895,2.9939,2.9975,3.0039,3.0071,3.0111,3.0117,3.0133,3.0123,3.0115,3.0116,3.0113,3.0116,3.0134,3.0134,3.0134,3.0134,0,2.9583,2.96,2.9641,2.9689,2.9722,2.976,2.9798,2.9817,2.9856,2.9886,2.993,2.9958,3.0013,3.0055,3.0099,3.0122,3.0134,3.0138,3.0144,3.0136,3.0124,3.013,3.0088,3.0136,3.0136,3.0136,3.0136,3.0135,2.96,2.9628,2.9674,2.9719,2.9752,2.9787,2.9817,2.9848,2.9886,2.9935,2.9952,2.9997,3.0036,3.0096,3.012,3.0154,3.0154,3.0163,3.0165,3.0166,3.0165,3.012,3.0162,3.0162,3.0162,3.0162,3.0162,0,2.9631,2.9662,2.9703,2.9757,2.9792,2.9803,2.9846,2.9873,2.9914,2.9951,2.9987,3.0037,3.0078,3.0114,3.0155,3.0175,3.0182,3.0185,3.0183,3.0188,3.0164,3.0154,3.0179,3.0179,3.0179,3.0179,3.0179,3.0179,2.9651,2.9699,2.9721,2.9786,2.9816,2.9863,2.9886,2.9917,2.9948,3.0003,3.0039,3.0063,3.0099,3.0144,3.0181,3.019,3.0204,3.0206,3.0216,3.0192,3.019,3.0188,3.0179,3.0209,3.0209,3.0237,3.0238,3.0238]}]]